Location: Aeugst
(47.2704°N, 8.4833°E)
Time: 12:18:04
(UTC+00:00)

Daily predictions for brighter satellites

Satellite Brightness Start Highest point End
(mag) Time Altitude Azimuth Time Altitude Azimuth Time Altitude Azimuth
Cosmos 2056 Rocket 4.1 19:52:45 10° SSW 19:58:07 66° WNW 20:03:33 10° NNE
Cosmos 1709 Rocket 4.3 19:53:49 10° NNW 20:00:01 72° W 20:06:17 10° S
Cosmos 1420 Rocket 4.3 19:55:13 10° SSW 20:00:29 76° WNW 20:05:48 10° NNE
CARTOSAT-1 3.8 19:57:50 10° SSE 20:02:02 54° ENE 20:06:15 10° N
Cosmos 676 Rocket 4.5 19:57:58 10° NNW 20:03:13 62° WSW 20:08:24 10° S
Cosmos 1975 Rocket 3.8 19:59:13 10° SSW 20:03:35 57° WNW 20:07:57 10° N
Cosmos 1741 Rocket 4.4 19:59:01 10° NNW 20:04:16 55° ENE 20:09:29 10° SE
SL-24 R/B 4.4 20:00:10 10° SSE 20:04:32 74° ENE 20:09:36 10° N
ATLAS 5 CENTAUR R/B 3.9 19:52:03 10° NW 20:05:41 56° WSW 20:09:46 10° SSE
Tiangong 3.6 20:06:21 10° SW 20:07:12 11° SSW 20:08:04 10° S
Cosmos 2315 Rocket 4.3 20:02:01 10° SSW 20:08:20 78° W 20:14:39 10° N
SPOT 3 Rocket 3.7 20:06:25 10° SSE 20:11:32 62° ENE 20:16:42 10° N
Cosmos 2074 Rocket 4.2 20:06:41 10° N 20:12:52 57° ENE 20:19:00 10° SSE
Ariane Rocket 3.1 20:08:00 10° SSE 20:13:06 85° WSW 20:18:14 10° NNW
Cosmos 1544 Rocket 3.9 20:15:21 10° NNW 20:19:40 66° W 20:23:57 10° S
Lacrosse 5 rocket 3.8 20:19:53 10° WSW 20:21:13 11° WSW 20:22:35 10° SW
Cosmos 1656 3.8 20:16:53 10° NNW 20:22:22 75° WSW 20:27:53 10° SSE
GEOS 3 Rocket 4.3 20:18:05 10° SSE 20:22:58 46° WSW 20:27:55 10° NW
Nadezhda 1 Rocket 4.5 20:19:33 10° SSE 20:25:10 41° E 20:30:48 10° NNE
ATLAS 2AS CENTAUR R/B 3.6 20:22:16 10° NW 20:28:49 43° WSW 20:34:59 10° S
MetOp-B 4.4 20:25:05 10° S 20:30:25 73° WSW 20:35:48 10° NNW
Cosmos 1850 Rocket 4.0 20:26:02 10° NNW 20:31:16 88° WSW 20:36:19 11° SSE
SL-16 R/B 4.4 20:29:41 10° N 20:33:03 16° NE 20:36:25 10° ENE
Cosmos 1980 Rocket 3.1 20:28:43 10° NNW 20:34:04 39° NE 20:39:07 11° ESE
Cosmos 1697 Rocket 2.8 20:28:52 10° NNW 20:34:30 70° ENE 20:39:32 13° SE
Cosmos 2344 4.4 20:27:57 10° NW 20:36:37 69° NE 20:48:13 11° SE
SL-8 R/B 3.9 20:32:25 10° WNW 20:37:10 61° SSW 20:41:22 13° SE
Cosmos 2369 4.4 20:32:03 10° NNW 20:37:36 46° NE 20:42:35 12° SE
Cosmos 1331 Rocket 4.1 20:32:51 10° S 20:38:01 57° ESE 20:43:14 10° NNE
COSMOS 2406 3.6 20:37:58 10° S 20:43:21 43° ESE 20:48:46 10° NE
Spot 2 Rocket 3.5 20:38:47 11° SSE 20:43:36 78° ENE 20:48:44 10° NNW
Cosmos 2154 Rocket 4.1 20:38:17 10° N 20:44:31 69° E 20:50:11 12° SSE
X-37B 0.8 20:42:45 10° W 20:45:25 40° SSW 20:47:01 19° SE
ATLAS 5 CENTAUR R/B 3.3 20:48:00 11° ESE 20:48:00 11° ESE 20:48:57 10° E
CZ-2C R/B 4.0 20:43:39 10° NNE 20:48:03 47° E 20:51:58 12° S
SPOT 5 2.6 20:49:45 13° SSE 20:53:36 86° WSW 20:57:57 10° NNW
Cosmos 1703 3.5 20:52:17 10° SSW 20:56:08 68° WNW 20:59:58 10° N
Cosmos 2084 Rocket 3.3 20:53:16 10° NW 20:57:11 75° NE 21:00:03 18° SE
RESURS DK-1 3.2 20:54:05 10° NW 20:58:01 43° WSW 21:01:19 14° S
Cosmos 1452 Rocket 4.1 20:54:02 10° SW 20:59:13 59° WNW 21:04:26 10° NNE
Cosmos 1833 Rocket 2.7 20:53:48 10° SSW 20:59:25 89° NW 21:05:05 10° NNE
Terra 1.8 20:56:28 16° SSE 21:00:16 76° ENE 21:05:03 10° N
CZ-4B R/B 3.9 20:59:37 10° NNW 21:01:45 19° WNW 21:03:52 10° WSW
ASTEX 1 4.4 20:59:00 10° NNE 21:03:28 31° E 21:06:19 18° SE
Cosmos 967 Rocket 4.5 20:57:55 10° SSW 21:04:22 80° ESE 21:10:52 10° NE
Helios 1A Rocket 3.1 21:01:06 15° S 21:04:24 71° WSW 21:08:31 10° NNW
Cosmos 1110 Rocket 4.1 20:59:53 10° SSW 21:05:09 80° WNW 21:10:30 10° NNE
FALCON 9 DEB 4.3 21:03:22 10° NW 21:06:28 38° NNE 21:09:34 10° E
ERS-1 Rocket 3.1 21:02:33 14° S 21:06:50 77° WSW 21:11:54 10° NNW
Cosmos 1892 Rocket 3.9 21:04:15 18° SSE 21:07:09 46° E 21:11:21 10° NNE
Resurs 01 Rocket 4.1 21:04:43 10° SW 21:07:43 18° W 21:10:45 10° NW
Cosmos 1302 Rocket 4.2 21:03:52 12° S 21:08:28 51° ESE 21:13:29 10° NNE
Cosmos 2322 Rocket 4.2 21:04:52 10° N 21:08:55 19° NE 21:12:57 10° E
Cosmos 2228 3.5 21:07:34 10° NNW 21:11:43 55° W 21:15:15 14° S
Cosmos 2058 Rocket 3.6 21:08:28 10° N 21:12:44 44° ENE 21:15:19 21° SE
Cosmos 1825 3.8 21:15:03 17° ESE 21:16:05 19° E 21:18:49 10° NE
Cosmos 1408 3.0 21:16:14 26° SE 21:17:38 40° E 21:20:54 10° NNE
Lacrosse 5 4.2 21:16:30 10° W 21:18:21 12° WSW 21:20:13 10° SW
Meteor 1-11 4.4 21:15:39 18° SSE 21:19:40 54° E 21:25:06 10° NNE
Cosmos 2278 4.2 21:14:47 10° NNW 21:20:23 51° ENE 21:24:23 19° SE
Cosmos 968 Rocket 3.5 21:17:59 10° NNW 21:23:13 82° ENE 21:26:36 23° SSE
Cosmos 1328 3.9 21:22:06 15° SSW 21:25:22 76° W 21:29:24 10° N
Cosmos 2218 Rocket 4.5 21:20:27 10° N 21:26:41 50° ENE 21:30:50 21° SE
USA 276 2.8 21:25:23 10° WNW 21:28:21 50° N 21:31:02 12° E
SJ 16-02 3.5 21:29:20 10° N 21:32:20 18° NE 21:35:20 10° E
Cosmos 1867 3.6 21:27:36 10° NW 21:33:07 89° NE 21:36:30 24° SE
Cosmos 2082 Rocket 2.2 21:27:31 10° SSW 21:33:12 73° ESE 21:38:54 10° NNE
USA 267 3.5 21:30:35 10° ENE 21:36:47 43° SE 21:42:57 10° SSW
ARIANE 5 R/B 2.9 21:35:43 22° S 21:38:30 61° W 21:42:54 10° NNW
Cosmos 1606 Rocket 4.4 21:36:18 10° NNW 21:40:24 43° W 21:43:24 17° SSW
GP-B 3.1 21:36:55 10° N 21:41:22 66° E 21:43:34 28° SSE
Cosmos 2341 Rocket 4.0 21:36:31 10° N 21:42:52 88° E 21:47:01 23° S
Cosmos 2360 Rocket 4.1 21:40:37 10° N 21:45:02 22° NE 21:49:26 10° E
SAR-Lupe-4 3.6 21:41:58 10° NNE 21:45:31 61° ESE 21:46:46 36° SSE
CSL-04 DEB 4.5 21:47:43 10° NNE 21:52:06 76° ESE 21:54:21 28° S
Okean 1-7 Rocket 3.6 21:58:40 33° SSE 22:00:35 67° E 22:05:05 10° NNE
SAR-Lupe-1 4.1 21:58:30 10° N 22:02:05 74° WNW 22:03:39 31° SSW
Cosmos 1892 2.9 22:02:06 28° SSW 22:03:55 63° WNW 22:07:41 10° N
Cosmos 1758 Rocket 4.4 22:08:36 30° SE 22:09:46 36° E 22:13:48 10° NNE
Cosmos 2181 Rocket 4.0 22:07:22 24° S 22:11:22 88° WNW 22:17:38 10° N
USA 234 3.6 22:05:09 10° ESE 22:11:38 65° NNE 22:18:07 10° NW
Cosmos 1633 3.0 22:12:09 39° ESE 22:12:31 41° E 22:15:48 10° NNE
Cosmos 1980 Rocket 3.1 22:12:49 10° NW 22:18:03 38° WSW 22:20:52 23° SSW
Cosmos 1821 Rocket 4.2 22:12:02 10° N 22:18:12 58° ENE 22:21:23 29° SE
SL-16 R/B 2.4 22:12:40 10° NNW 22:18:20 65° ENE 22:21:23 28° SE
Cosmos 1992 Rocket 3.9 22:15:18 24° SSW 22:18:31 89° W 22:23:48 10° NNE
Cosmos 1486 Rocket 4.0 22:13:32 10° NNW 22:18:45 76° WSW 22:21:05 34° S
Cosmos 1932 4.5 22:14:21 10° SW 22:20:35 83° NW 22:26:58 10° NE
Cosmos 1812 Rocket 3.7 22:16:09 10° N 22:20:36 64° E 22:22:08 38° SE
SL-4 R/B 4.1 22:23:23 12° E 22:23:23 12° E 22:23:46 10° E
Cosmos 2219 Rocket 4.3 22:17:54 10° N 22:22:05 20° NE 22:26:14 10° E
Cosmos-2242 3.1 22:25:43 10° N 22:29:56 62° ENE 22:31:12 41° SE
ATLAS 5 CENTAUR R/B 1.3 22:29:23 25° SW 22:31:26 74° NW 22:35:40 10° NE
Cosmos 1602 Rocket 3.4 22:32:11 43° S 22:33:35 84° E 22:37:56 10° N
Cosmos 1869 3.8 22:30:16 10° NNW 22:34:02 48° W 22:35:09 36° SW
Cosmos 807 4.1 22:31:19 10° NNW 22:34:21 67° W 22:34:24 67° WSW
ERS-2 3.6 22:34:48 10° NE 22:37:40 23° E 22:37:40 23° E
Terra 4.2 22:36:07 10° WSW 22:38:35 14° W 22:41:04 10° WNW
Nadezhda 3 Rocket 4.1 22:36:22 32° SSE 22:39:13 63° E 22:45:17 10° NNE
ALOS 2 2.6 22:39:48 42° SSE 22:41:14 72° ENE 22:45:37 10° N
FALCON 9 DEB 3.5 22:39:37 10° WNW 22:42:17 45° WSW 22:42:17 45° WSW
Cosmos 1354 Rocket 4.0 22:41:41 10° NNW 22:47:01 87° WSW 22:49:06 38° SSE
BREEZE-M DEB (TANK) 3.9 22:45:29 10° WNW 22:48:54 85° NNE 23:02:50 10° ESE
ADEOS Rocket 3.5 22:45:43 29° SSE 22:49:53 85° ENE 22:57:42 10° NNW
Cosmos 1825 3.6 22:49:40 23° WSW 22:51:12 32° WNW 22:54:36 10° N
Cosmos 2322 Rocket 2.2 22:48:06 10° NNW 22:53:49 86° ENE 22:56:24 34° SSE
Cosmos 1503 Rocket 4.2 22:51:32 10° NNW 22:56:45 60° WSW 22:58:35 38° S
Cosmos 1953 Rocket 4.2 22:58:43 38° SE 22:59:43 44° E 23:03:56 10° NNE
USA 276 3.5 23:01:10 10° WNW 23:02:50 28° W 23:02:50 28° W
Cosmos 1777 Rocket 3.9 22:59:31 10° NNW 23:04:51 88° ENE 23:06:53 39° SSE
Cosmos 2333 Rocket 3.0 23:03:27 10° NNW 23:09:03 49° NE 23:12:52 20° ESE
Cosmos 1825 Rocket 3.4 23:08:18 51° S 23:09:21 86° ESE 23:13:44 10° N
CENTAUR R/B 4.1 23:09:34 15° ESE 23:10:52 16° ESE 23:14:38 10° ENE
SJ 16-02 1.5 23:06:56 10° NNW 23:11:20 62° WSW 23:12:19 48° SSW
Gbstr 26 Del rocket 3.2 23:11:09 49° SSE 23:11:38 52° SE 23:16:35 10° ENE
COSMOS 2487 4.5 23:13:59 15° E 23:13:59 15° E 23:15:14 10° ENE
Cosmos 1340 Rocket 2.8 23:13:04 54° SE 23:13:37 62° E 23:17:32 10° NNE
Cosmos 2082 Rocket 4.3 23:13:19 10° W 23:17:53 24° NW 23:22:27 10° N
H-2A R/B 3.9 23:15:24 10° N 23:19:31 54° WNW 23:20:55 36° SW
USA 267 3.5 23:13:31 10° NE 23:20:02 71° NNW 23:26:32 10° WSW
Celestis-02/Orion 38 4.5 23:19:53 36° SSE 23:22:04 86° ENE 23:27:10 10° NNW
Cosmos 2221 2.7 23:22:44 10° N 23:27:05 63° ENE 23:28:17 43° SE
Cosmos 2058 3.1 23:26:08 46° SW 23:27:11 65° WNW 23:31:22 10° N
Cosmos 1606 3.5 23:24:07 10° NNW 23:27:44 39° W 23:28:16 37° WSW
Cosmos 2360 Rocket 2.1 23:24:00 10° NNW 23:29:43 79° WSW 23:32:00 38° SSE
Cosmos 1842 Rocket 4.1 23:25:22 10° N 23:29:46 51° ENE 23:31:14 36° SE
Cosmos 1934 Rocket 3.9 23:24:17 10° N 23:30:24 82° W 23:33:06 36° S
Nimbus 7 Rocket 4.4 23:28:05 10° NNE 23:34:02 73° ESE 23:36:36 36° S
Cosmos 2333 4.3 23:28:26 10° NNW 23:34:15 74° ENE 23:37:21 29° SE
Resurs 1-4 Rocket 4.4 23:33:00 10° ENE 23:35:12 12° E 23:37:23 10° ESE
Cosmos 1782 4.1 23:32:17 10° N 23:35:54 32° ENE 23:37:13 25° ESE
Cosmos 1833 4.1 23:39:57 38° SSW 23:42:11 80° ESE 23:47:49 10° NNE
NOSS 8 (A) 4.2 23:42:23 78° W 23:42:30 79° NW 23:45:28 10° NE
Cosmos 44 3.0 23:41:21 48° SSW 23:42:32 74° ESE 23:47:00 10° NE
CZ-2D R/B 4.3 23:41:15 10° ENE 23:43:55 14° E 23:46:36 10° ESE
Cosmos 2237 Rocket 4.2 23:49:24 10° N 23:54:05 25° NE 23:58:42 10° ESE
